Wind_Speed
21 22 23 20 17 14 4 4 3 23 11 5 3 2 4 6 2 2 2 1 2 2 4 3 3 4 3 7 8 8 3 1 3 2 2 3 4 9 2 2 4 3 2 2
21 22 23 20 18 15 3 3 1 13 9 4 3 4 3 2 3 3 3 3 3 3 3 3 2 4 5 8 9 7 6 3 4 3 2 4 5 14 11 3 3 3 1 3
21 22 23 22 15 13 4 3 3 4 6 2 4 3 4 5 4 2 4 3 3 5 3 2 4 6 5 12 8 12 4 5 3 3 2 3 5 14 16 2 2 3 6 10
20 22 23 23 17 12 4 4 1 2 3 4 3 1 4 4 5 4 4 1 5 9 4 4 2 3 8 4 11 6 3 3 3 4 6 8 13 13 15 16 8 3 6 9
19 22 23 23 20 9 9 3 4 3 2 1 3 6 4 3 4 2 4 3 11 5 3 4 10 8 2 2 6 5 5 2 5 4 6 7 11 16 12 12 9 8 11 9
16 19 23 24 23 10 6 4 4 4 3 2 3 2 4 4 5 3 3 5 5 6 2 3 10 9 5 2 3 4 4 2 2 2 4 8 2 10 10 4 9 3 4 2
14 16 20 23 24 19 9 4 4 4 0 2 1 2 2 5 4 3 5 4 3 3 6 5 0 2 5 4 4 4 3 1 2 2 4 4 3 3 2 7 6 7 5 6
11 14 16 19 20 18 15 6 2 3 2 1 1 2 3 7 6 2 3 3 3 13 3 3 4 4 2 4 3 5 3 2 3 2 2 2 1 4 4 4 2 5 6 6
9 11 13 14 16 14 13 12 7 5 6 3 2 2 1 1 3 6 3 5 8 5 2 3 3 3 2 5 8 3 5 4 3 1 3 1 4 3 5 2 2 3 4 6
6 8 11 12 13 11 11 10 5 4 4 3 4 2 2 3 1 2 4 7 7 6 4 3 3 2 2 3 4 5 5 4 3 3 2 3 3 5 3 1 2 3 4 4
4 7 10 11 11 9 6 6 9 2 3 3 5 6 4 1 2 2 4 3 4 4 4 2 1 1 2 2 2 2 1 2 1 1 2 1 2 2 4 3 3 1 2 2
2 4 7 9 10 9 5 3 5 8 7 4 4 3 1 2 4 4 2 5 2 3 3 1 1 0 1 2 2 2 2 4 3 5 3 1 2 4 2 3 3 3 2 2
1 1 5 8 8 9 4 4 3 3 5 3 2 1 2 2 1 1 3 2 3 1 2 3 2 1 2 1 3 0 2 1 2 4 3 4 4 4 3 5 4 3 3 3
4 2 4 5 6 8 4 4 5 4 5 3 4 2 2 1 3 3 1 5 6 6 2 2 2 2 2 2 2 3 3 3 3 5 6 5 4 5 4 3 3 3 5 6
5 5 4 3 5 6 1 5 8 4 1 3 2 2 1 3 4 5 2 5 4 2 2 2 2 1 2 1 1 3 5 6 3 4 6 5 6 3 3 4 6 7 3 4
4 2 2 3 5 4 1 2 2 5 1 3 1 0 2 3 4 4 3 4 4 2 3 2 2 3 3 2 2 5 5 3 5 4 4 5 4 6 6 4 8 10 9 13
3 4 1 5 5 1 2 2 3 3 1 2 2 1 2 4 2 2 2 2 2 2 2 1 3 1 3 2 2 7 6 6 4 3 3 4 3 4 7 11 9 10 15 18
3 1 2 3 2 2 0 4 3 1 4 5 2 2 1 7 2 2 5 1 2 3 2 1 1 1 1 2 8 6 4 3 4 8 14 6 1 7 10 11 10 5 7 12
0 0 5 4 1 0 1 1 2 4 2 3 2 3 3 5 1 0 2 2 2 1 1 1 0 2 3 7 6 4 4 4 5 1 3 4 6 9 6 7 6 5 6 11
5 5 1 2 1 1 3 1 3 6 7 3 2 1 1 3 2 1 2 2 1 0 2 1 2 3 5 5 6 5 6 6 4 2 5 4 6 8 6 7 11 11 12 12
2 2 2 2 1 1 3 2 2 2 4 2 1 2 1 2 1 1 2 1 1 2 3 2 2 3 4 4 5 5 9 9 12 15 13 11 8 6 6 7 12 13 13 13
2 2 2 2 3 3 3 1 2 2 3 1 2 1 2 1 2 3 2 2 3 3 2 3 3 4 6 4 5 5 13 11 11 11 16 17 16 18 16 15 14 14 13 12
2 2 3 3 2 4 3 4 4 3 2 3 1 1 1 1 2 3 3 3 3 1 3 3 4 4 4 6 4 6 11 11 12 14 12 14 15 15 15 15 16 13 10 10
2 3 3 2 3 4 4 4 3 2 3 3 2 2 1 1 2 1 3 2 2 3 2 6 3 6 5 3 3 1 6 10 11 12 13 12 11 11 10 10 9 6 8 9
2 3 3 5 1 0 0 0 1 2 2 3 2 2 1 1 2 1 2 4 4 6 5 3 4 5 3 3 2 4 6 9 11 13 12 12 11 9 7 3 4 6 8 9
3 1 1 0 2 2 1 2 2 4 3 2 2 2 3 3 3 1 6 5 6 4 3 3 2 3 4 4 4 6 8 9 11 11 8 7 6 6 6 8 8 7 4 5
1 3 1 2 1 3 1 3 2 9 3 2 2 2 5 2 1 3 4 5 4 4 3 3 4 4 4 5 5 6 6 7 7 7 8 8 7 8 7 6 8 8 9 11
Wind_Direction
9 5 4 3 5 2 18 72 50 355 9 51 39 56 322 319 316 352 319 300 273 295 307 296 302 328 242 346 329 322 283 52 314 247 265 146 131 353 279 312 4 359 51 80
12 8 9 8 11 16 47 77 12 7 42 68 9 325 320 295 323 326 337 329 25 24 295 310 320 325 320 355 345 343 335 10 338 345 1 45 34 349 336 218 273 41 77 147
14 12 12 12 12 18 68 85 46 5 45 57 97 7 353 321 326 289 335 287 40 327 294 258 302 317 324 336 334 11 39 19 20 120 200 289 360 11 8 327 22 104 40 99
16 17 18 14 15 22 77 33 104 183 1 26 80 109 341 331 347 357 316 334 20 336 295 301 250 311 326 328 357 8 68 107 82 132 137 66 48 26 20 34 21 51 105 73
18 19 23 24 18 28 73 109 131 22 105 2 45 353 350 306 306 276 316 360 328 314 257 217 303 326 314 355 331 15 350 206 183 194 154 66 47 27 27 23 10 52 70 58
20 21 25 28 32 35 88 96 100 102 317 52 76 259 278 295 346 289 266 317 304 320 285 304 278 278 255 63 8 332 358 329 214 269 289 273 40 0 31 67 31 358 59 46
21 25 26 30 36 42 92 111 121 86 152 97 98 322 296 295 328 246 304 310 305 269 335 289 65 61 101 115 61 18 332 292 37 288 360 31 245 15 43 82 44 35 43 25
23 28 30 30 36 40 70 93 104 114 98 206 164 350 340 321 333 336 269 294 297 312 309 42 31 1 36 359 15 20 45 95 70 86 61 258 233 23 360 0 27 12 354 4
21 28 33 31 33 34 50 57 68 98 120 277 140 155 16 256 308 334 275 317 327 343 50 57 52 28 277 326 340 55 20 85 99 55 92 18 244 321 337 276 186 38 356 350
22 31 37 33 28 29 45 49 52 90 106 245 133 127 169 135 80 210 305 335 350 6 20 53 45 330 210 19 1 330 342 359 73 5 93 288 250 311 307 328 16 357 13 360
44 45 42 35 27 19 39 55 40 70 110 255 189 161 129 93 83 113 293 39 355 18 53 67 281 62 270 53 245 192 176 82 330 333 46 317 29 334 136 235 313 332 4 353
57 45 42 32 26 18 21 62 56 69 87 180 164 161 161 153 192 145 349 163 181 189 84 9 111 331 70 164 330 355 16 175 211 166 225 258 271 211 240 171 200 274 182 283
249 17 25 22 9 17 29 69 83 92 95 36 91 161 167 174 205 159 111 288 156 88 154 162 182 99 134 80 257 284 291 150 195 32 290 241 261 288 246 192 216 234 240 259
247 277 2 6 348 6 25 86 55 85 101 114 268 140 133 64 169 175 103 142 114 101 71 122 145 155 136 214 198 176 200 117 193 263 286 311 267 236 231 253 266 268 259 243
241 259 306 337 323 347 58 95 53 55 123 170 233 135 117 23 171 169 138 142 114 112 66 82 231 113 93 344 70 274 183 195 152 233 220 168 240 230 197 212 248 263 232 283
220 243 214 323 323 325 237 21 30 24 94 97 120 82 56 53 138 155 119 115 98 101 140 204 260 240 111 105 209 254 226 229 184 231 194 206 247 253 220 206 240 245 247 256
183 176 9 343 343 3 78 125 334 358 120 85 43 290 35 0 61 62 68 71 112 112 134 143 160 225 100 108 201 245 232 223 236 199 134 301 206 235 202 218 249 268 266 266
154 29 332 319 62 108 97 36 8 123 104 68 103 267 44 9 0 3 1 25 38 10 165 31 109 31 102 258 248 265 255 277 273 232 219 238 272 287 257 252 258 250 257 266
224 263 269 282 247 28 68 279 349 50 112 142 84 124 271 7 8 333 5 35 23 279 82 16 73 322 237 228 229 244 228 197 242 274 213 253 238 263 265 227 229 230 259 267
242 276 225 328 126 314 169 318 19 23 354 28 102 103 325 74 12 18 39 9 60 16 262 331 119 259 263 253 241 251 257 239 182 237 271 218 246 231 237 224 242 242 259 277
221 189 200 158 169 188 38 13 70 332 4 15 225 152 197 17 74 226 72 200 321 50 264 117 295 276 254 260 286 263 292 278 245 241 259 262 256 248 242 251 250 256 265 264
200 154 133 139 47 31 78 292 333 93 236 268 133 232 177 105 86 92 334 117 36 242 310 62 280 251 246 279 289 310 330 318 297 277 259 265 256 255 247 250 253 254 265 277
163 106 54 60 315 26 93 322 308 321 189 211 173 324 109 117 79 61 70 70 228 346 43 233 231 253 264 256 273 299 324 326 322 315 306 293 280 278 257 251 259 265 267 278
95 114 300 147 293 242 186 191 197 230 116 147 127 101 130 107 62 146 79 234 57 21 350 238 244 225 238 245 249 266 304 317 318 318 325 320 314 301 290 262 265 267 275 291
158 96 244 218 242 44 142 120 77 189 129 109 96 70 77 44 70 95 79 20 270 208 232 231 230 222 214 257 263 280 298 317 317 324 322 323 329 321 311 306 299 298 295 298
104 86 37 144 45 279 225 187 224 166 133 118 67 104 52 262 152 109 216 126 231 249 219 231 193 211 212 235 266 296 311 322 323 334 339 349 4 359 339 326 325 321 312 299
109 269 225 132 163 218 198 157 161 156 147 171 119 139 226 87 16 256 194 209 220 218 236 216 210 206 212 230 278 306 315 324 340 351 351 342 335 328 332 352 335 323 314 310
Height
858 853 847 842 837 833 830 832 844 838 832 849 865 872 867 859 858 857 858 857 859 860 860 861 854 852 849 846 841 841 832 839 844 844 840 847 854 847 838 819 795 806 793 839
859 854 849 843 838 833 831 844 850 843 835 867 876 872 866 862 860 859 858 860 859 860 863 864 854 851 844 845 841 836 831 849 868 843 845 840 860 846 837 831 825 839 819 840
861 856 850 844 838 834 833 846 855 856 858 874 877 885 874 869 860 860 858 859 860 862 862 858 861 852 845 844 843 832 835 847 844 859 865 860 860 851 842 830 819 836 840 842
863 857 851 845 839 835 836 851 873 871 882 876 881 890 879 875 871 865 862 859 861 864 867 861 860 854 851 846 845 845 847 871 858 860 853 851 853 855 851 847 842 833 852 854
865 860 854 848 841 838 840 857 866 875 882 882 882 887 884 880 872 873 869 866 866 865 869 868 863 859 858 858 853 854 851 867 852 853 849 847 855 854 855 857 859 855 858 863
867 862 857 852 845 841 846 856 860 863 883 886 893 894 883 876 876 871 868 869 868 865 862 863 862 860 860 862 863 862 859 853 848 852 850 845 859 869 865 870 871 866 865 873
869 865 861 856 851 849 848 854 857 870 887 886 880 881 881 877 876 880 870 868 867 862 861 858 858 859 859 862 867 865 867 858 860 863 869 892 872 868 866 869 872 872 869 870
870 868 864 861 857 855 852 855 857 869 896 882 879 879 883 879 877 875 873 868 867 863 861 872 874 868 863 866 864 866 871 875 882 889 887 879 867 871 873 872 869 870 870 870
871 870 867 864 861 859 857 857 858 860 881 889 879 883 885 895 894 880 871 868 865 863 862 871 891 887 895 879 869 864 863 881 875 875 876 869 883 873 872 873 865 875 875 874
873 871 869 866 864 862 861 861 860 860 880 880 881 889 890 891 897 902 884 876 871 868 878 881 896 898 895 898 899 893 885 890 900 881 888 882 879 878 873 868 875 875 876 877
874 872 870 868 866 864 864 864 862 862 877 879 877 878 887 889 894 900 879 883 882 883 897 897 900 899 914 910 912 916 912 919 900 878 883 881 879 878 884 882 880 878 878 880
874 873 871 869 868 866 864 864 864 863 865 874 876 876 877 877 877 883 887 885 889 888 902 909 905 894 915 930 908 908 903 909 912 900 882 882 881 882 882 886 885 881 881 879
874 873 872 871 869 867 866 865 865 866 869 875 876 876 876 876 877 877 886 885 883 888 888 899 911 906 903 913 906 915 903 904 910 902 889 889 888 885 882 882 882 880 878 877
873 873 871 871 870 868 866 866 866 867 869 880 880 875 876 876 876 876 877 877 880 884 888 906 908 894 896 909 908 907 904 905 911 902 891 891 883 883 879 878 877 877 876 875
873 872 871 871 869 868 867 867 867 867 870 876 879 875 876 875 874 875 876 876 879 887 895 905 903 901 902 917 909 914 902 894 901 892 881 882 880 878 876 878 876 873 873 872
872 871 871 870 869 868 867 868 868 867 867 872 882 875 875 875 875 875 876 876 879 885 887 899 904 897 898 912 919 884 887 887 880 878 878 878 875 874 873 874 871 870 869 868
870 870 871 870 869 868 868 870 869 867 867 871 882 877 876 875 874 875 877 877 879 882 896 893 892 893 895 912 909 870 875 873 875 875 877 876 875 869 866 867 866 867 866 865
870 870 871 870 869 868 868 868 867 867 867 870 895 883 877 877 881 883 877 881 880 883 889 891 890 892 896 897 872 874 874 874 873 869 868 864 866 866 864 864 864 863 862 860
870 870 870 870 869 868 868 868 867 867 869 880 887 888 885 879 881 883 881 881 889 885 891 890 886 898 893 869 868 873 866 864 861 863 863 864 865 861 859 859 859 860 857 855
868 869 869 870 869 868 869 868 867 868 871 874 883 886 886 885 884 885 890 888 893 899 894 887 894 889 870 869 866 863 861 859 860 860 858 858 857 854 852 852 851 851 850 849
867 866 868 868 868 869 869 877 878 882 885 883 888 888 889 885 893 894 894 902 897 906 891 893 896 886 872 861 860 855 853 852 852 851 848 848 847 846 846 845 845 845 845 844
865 865 866 867 869 873 876 889 885 885 877 885 884 885 885 886 886 895 901 901 904 899 897 900 900 872 861 860 855 850 849 847 845 844 842 840 840 840 840 840 839 839 839 839
864 865 868 870 877 870 867 875 875 879 887 883 882 887 883 885 890 904 907 906 905 904 917 895 875 865 857 854 851 847 846 844 841 839 837 835 834 833 834 833 833 834 834 834
865 872 867 872 874 873 870 871 871 873 876 879 880 883 884 884 891 901 901 908 906 915 912 883 868 855 849 848 847 846 843 841 839 836 834 832 830 829 828 828 829 830 830 830
867 871 855 870 864 871 873 875 874 873 874 878 880 883 884 886 896 892 905 905 901 888 873 865 851 845 846 844 842 842 840 838 836 834 832 830 828 827 826 826 827 827 827 827
866 870 862 869 870 869 872 872 872 871 873 876 878 887 893 892 892 897 894 898 884 857 861 844 842 840 841 839 838 838 837 836 834 832 830 829 828 827 826 825 825 824 824 824
864 864 859 861 865 860 863 864 865 868 870 872 883 883 869 895 898 891 881 871 848 842 838 834 834 834 834 835 835 835 834 833 832 831 830 829 828 826 825 824 823 823 822 821